Location: Melita
(38.4566°N, 122.6369°W)
Time: 00:16:34
(UTC+00:00)

SJ-12 - Pass Details

Date: 24 January 2020
Orbit: 569 x 585 km, 97.6° (Epoch: 23 February)

Event Time Altitude Azimuth Distance (km) Brightness Sun altitude
Rises 13:53:54 0° 2° (N) 2,781 7.3 -17.3°
Reaches altitude 10° 13:56:09 10° 354° (N) 1,881 6.4 -16.9°
Maximum altitude 13:59:53 36° 288° (WNW) 908 4.4 -16.1°
Drops below altitude 10° 14:03:38 10° 221° (SW) 1,875 6.3 -15.4°
Sets 14:05:53 0° 212° (SSW) 2,771 7.2 -15.0°
